MISRSAT-2

Satellite information

Favourite Embed

Satellite Type and Status

PAYLOADIN ORBIT

Key statistics

Satellite MISRSAT-2 at a glance.

Uptime

524

Days in orbit

Revolutions

≈ 14.8

Per day

Orbit

SSO

Sun Synchronous Orbit

Inclination

98.0

Latest

Satellite identification and parameters

Extended collection of information and parameters for MISRSAT-2.

Object identification

Identified? True

Debris? False

Object name: MISRSAT-2

International designator: 2023-187B

Object number (NORAD): 58497

Object ID (CCSDS): 58497

Country: EGYPT (EGYP)

Current information (Y/N): Y

RCS size: LARGE

Orbital parameters

Period: 97.182 minutes

Inclination: 97.9557 deg

SMA: 7001.905 km

Apoapsis: 631.902 km

Periapsis: 615.639 km

RAAN: 210.6987 deg

Eccentricy: 0.0011613

Argument of periapsis: 23.0405 deg

Mean anomaly: 337.1326 deg

Mean motion: 14.81761818 rev/day

Mean motion (dot): 0.00001685 rev/day2

B* drag term: 0.00022017 1/REarth

Two-line elements (TLE)

Creation date: May 11, 2025, 2:40 a.m.

Reference frame: TEME

Reference center: EARTH

Epoch: May 10, 2025, 10:15 p.m. UTC

TLE line 0: 0 MISRSAT-2

TLE line 1: 1 58497U 23187B 25130.92716759 .00001685 00000-0 22017-3 0 9996

TLE line 2: 2 58497 97.9557 210.6987 0011613 23.0405 337.1326 14.81761818 77448

Live tracking on map

Real-time ground track for satellite MISRSAT-2.

In-orbit conjunctions

There are no conjunctions computed for MISRSAT-2, at the moment. Check back to stay up to date, as we update our databases every day.

Go to all conjunctions

Associated space launch

MisrSat-2 is an Earth observation satellite for the Egyptian Space Agency built by China, with participation from Egyptian engineers and scientists offering opportunity to acquire on-the-project experience in satellite design and integration from China, using facilities available in Egypt. Also riding on this launch is Starpool-02A/B, multi-purpose communication, remote sensing and navigation enhancement satellites from Beijing based ELLIPSPACE.

MISRSAT-2 was lifted into orbit during the mission ‘Long March 2C | MisrSat-2’, on board a Long March 2 space rocket.

The launch took place on Dec. 4, 2023, 4:10 a.m. from Launch Area 4 (SLS-2 / 603).

For more information about the launch, click the button.

Launch to space Long March 2C | MisrSat-2
Long March 2C | MisrSat-2

Agency: N/A

Status: Launch Successful

Launch date: Dec. 4, 2023, 4:10 a.m. UTC

Rocket: Long March 2

Launch pad: Launch Area 4 (SLS-2 / 603)

Location: Jiuquan Satellite Launch Center, People's Republic of China

...

Latest news about this satellite

There are no fresh news available about this satellite. Check back as we update our databases every day.


Newsletter sign-up

Weekly statistics, charts and insights to help you stay on top of the space industry.